TimePST,TemperatureF,Dew PointF,Humidity,Sea Level PressureIn,VisibilityMPH,Wind Direction,Wind SpeedMPH,Gust SpeedMPH,PrecipitationIn,Events,Conditions,WindDirDegrees,DateUTC
12:29 AM,48.2,46.4,93,29.99,7.0,Calm,Calm,-,N/A,,Overcast,0,2014-02-23 08:29:00
12:53 AM,48.9,46.9,93,29.99,4.0,Calm,Calm,-,N/A,,Overcast,0,2014-02-23 08:53:00
1:16 AM,48.2,46.4,93,29.99,2.0,Calm,Calm,-,N/A,,Overcast,0,2014-02-23 09:16:00
1:20 AM,48.2,46.4,93,29.99,1.2,Calm,Calm,-,N/A,,Overcast,0,2014-02-23 09:20:00
1:31 AM,48.2,46.4,93,29.99,0.8,Calm,Calm,-,N/A,,Mist,0,2014-02-23 09:31:00
1:53 AM,48.0,46.9,96,29.99,0.5,Calm,Calm,-,N/A,Fog,Fog,0,2014-02-23 09:53:00
2:53 AM,46.9,46.0,97,29.99,0.5,Calm,Calm,-,N/A,Fog,Fog,0,2014-02-23 10:53:00
3:29 AM,46.4,46.4,100,29.98,0.2,Calm,Calm,-,N/A,Fog,Fog,0,2014-02-23 11:29:00
3:46 AM,46.4,46.4,100,29.98,0.5,Calm,Calm,-,N/A,Fog,Fog,0,2014-02-23 11:46:00
3:53 AM,46.9,46.0,97,29.99,0.5,Calm,Calm,-,N/A,Fog,Fog,0,2014-02-23 11:53:00
4:53 AM,46.0,46.0,100,30.00,0.5,Calm,Calm,-,N/A,Fog,Fog,0,2014-02-23 12:53:00
5:53 AM,46.0,45.0,96,30.01,0.5,Calm,Calm,-,N/A,Fog,Fog,0,2014-02-23 13:53:00
6:04 AM,46.4,44.6,93,30.01,0.2,Calm,Calm,-,N/A,Fog,Fog,0,2014-02-23 14:04:00
6:15 AM,46.4,44.6,93,30.01,0.5,Calm,Calm,-,N/A,Fog,Fog,0,2014-02-23 14:15:00
6:53 AM,46.0,45.0,96,30.01,0.5,Calm,Calm,-,N/A,Fog,Fog,0,2014-02-23 14:53:00
7:20 AM,46.4,44.6,93,30.02,0.2,Calm,Calm,-,N/A,Fog,Fog,0,2014-02-23 15:20:00
7:53 AM,45.0,44.1,97,30.03,0.5,Calm,Calm,-,N/A,Fog,Fog,0,2014-02-23 15:53:00
8:05 AM,46.4,44.6,93,30.03,0.2,Calm,Calm,-,N/A,Fog,Fog,0,2014-02-23 16:05:00
8:22 AM,46.4,44.6,93,30.03,0.5,Calm,Calm,-,N/A,Fog,Fog,0,2014-02-23 16:22:00
8:53 AM,46.0,45.0,96,30.03,0.5,Calm,Calm,-,N/A,Fog,Fog,0,2014-02-23 16:53:00
9:21 AM,46.4,44.6,93,30.03,1.5,Calm,Calm,-,N/A,,Overcast,0,2014-02-23 17:21:00
9:26 AM,46.4,44.6,93,30.03,3.0,Calm,Calm,-,N/A,,Overcast,0,2014-02-23 17:26:00
9:53 AM,48.0,46.0,93,30.03,10.0,Calm,Calm,-,N/A,,Scattered Clouds,0,2014-02-23 17:53:00
10:53 AM,57.0,46.0,67,30.02,10.0,Calm,Calm,-,N/A,,Clear,0,2014-02-23 18:53:00
11:53 AM,64.9,45.0,48,30.00,10.0,SE,3.5,-,N/A,,Clear,140,2014-02-23 19:53:00
12:53 PM,64.0,48.0,56,29.98,10.0,West,6.9,-,N/A,,Clear,260,2014-02-23 20:53:00
1:53 PM,64.0,46.9,54,29.96,10.0,WSW,6.9,-,N/A,,Clear,250,2014-02-23 21:53:00
2:53 PM,64.9,45.0,48,29.96,10.0,Calm,Calm,-,N/A,,Clear,0,2014-02-23 22:53:00
3:53 PM,64.9,45.0,48,29.95,10.0,South,8.1,-,N/A,,Clear,170,2014-02-23 23:53:00
4:53 PM,60.1,48.9,67,29.95,10.0,SSE,6.9,-,N/A,,Clear,160,2014-02-24 00:53:00
5:53 PM,53.1,48.9,86,29.97,10.0,SSE,4.6,-,N/A,,Clear,150,2014-02-24 01:53:00
6:26 PM,51.8,48.2,88,29.99,10.0,SE,3.5,-,N/A,,Partly Cloudy,130,2014-02-24 02:26:00
6:44 PM,51.8,50.0,94,29.99,10.0,SSE,4.6,-,N/A,,Mostly Cloudy,160,2014-02-24 02:44:00
6:53 PM,52.0,50.0,93,29.99,10.0,SSE,4.6,-,N/A,,Mostly Cloudy,160,2014-02-24 02:53:00
7:03 PM,51.8,48.2,88,29.99,10.0,SSE,5.8,-,N/A,,Overcast,160,2014-02-24 03:03:00
7:53 PM,50.0,48.9,96,30.00,6.0,SSE,4.6,-,N/A,,Overcast,160,2014-02-24 03:53:00
8:15 PM,50.0,48.2,94,30.00,1.5,SSE,3.5,-,N/A,,Overcast,160,2014-02-24 04:15:00
8:22 PM,50.0,48.2,94,30.00,1.0,Calm,Calm,-,N/A,,Overcast,0,2014-02-24 04:22:00
8:33 PM,50.0,48.2,94,30.00,1.5,South,3.5,-,N/A,,Overcast,170,2014-02-24 04:33:00
8:50 PM,50.0,48.2,94,30.00,1.0,Calm,Calm,-,N/A,,Mist,0,2014-02-24 04:50:00
8:53 PM,50.0,48.9,96,30.01,1.0,Calm,Calm,-,N/A,,Mist,0,2014-02-24 04:53:00
9:00 PM,50.0,48.2,94,30.00,0.8,Calm,Calm,-,N/A,,Mist,0,2014-02-24 05:00:00
9:09 PM,50.0,48.2,94,30.00,1.2,Calm,Calm,-,N/A,,Overcast,0,2014-02-24 05:09:00
9:37 PM,50.0,48.2,94,30.00,1.8,Calm,Calm,-,N/A,,Overcast,0,2014-02-24 05:37:00
9:43 PM,48.2,48.2,100,30.00,0.8,Calm,Calm,-,N/A,,Mist,0,2014-02-24 05:43:00
9:53 PM,50.0,48.9,96,30.00,0.5,Calm,Calm,-,N/A,Fog,Fog,0,2014-02-24 05:53:00
10:06 PM,50.0,48.2,94,30.00,1.0,Calm,Calm,-,N/A,,Mist,0,2014-02-24 06:06:00
10:16 PM,50.0,48.2,94,30.00,0.8,Calm,Calm,-,N/A,,Mist,0,2014-02-24 06:16:00
10:42 PM,48.2,48.2,100,30.00,0.2,Calm,Calm,-,N/A,Fog,Fog,0,2014-02-24 06:42:00
10:53 PM,48.9,48.0,97,29.99,0.2,Calm,Calm,-,N/A,Fog,Fog,0,2014-02-24 06:53:00
11:53 PM,48.0,46.9,96,29.99,0.2,Calm,Calm,-,N/A,Fog,Fog,0,2014-02-24 07:53:00